Preview of NWS' New Version of Forecast
This preview is not operational and should not be used for support decisions.

Regional Weather Roundup (RWR)

Issued by National Weather Service (NWS)

                            
000
ASUS43 KLSX 181807
RWRMO 

WEATHER SUMMARY FOR MISSOURI
NATIONAL WEATHER SERVICE SPRINGFIELD MO
100 PM CDT SAT MAY 18 2019

NOTE: "FAIR" INDICATES FEW OR NO CLOUDS BELOW 12,000 FEET WITH NO
       SIGNIFICANT WEATHER AND/OR OBSTRUCTIONS TO VISIBILITY.
       CURRENT SKY AND/OR WEATHER CONDITIONS ARE NOT AVAILABLE FOR
       CHILLICOTHE AND FARMINGTON.

MOZ001>031-035>038-043-044-053-054-181900-
...NORTHERN AND WESTERN MISSOURI...
  
CITY           SKY/WX    TMP DP  RH WIND       PRES   REMARKS
KANSAS CTY INT TSTM      63  61  93 SE28G55   29.66R VSB 1/2          
6HR MIN TEMP:  63; 6HR MAX TEMP:  70; 6HR PCP:  0.24;                

KANSAS C DTWN  TSTM      68  65  90 SE7       29.64R FOG              
6HR MIN TEMP:  68; 6HR MAX TEMP:  73; 6HR PCP:  0.39;                

LEE'S SUMMIT   LGT RAIN  68  65  90 SE7       29.65F FOG              
6HR MIN TEMP:  65; 6HR MAX TEMP:  70; 6HR PCP:  0.49;                

ST JOSEPH      LGT RAIN  70  63  78 VRB3      29.58F                  
6HR MIN TEMP:  64; 6HR MAX TEMP:  72; 6HR PCP:  0.10;                

CHILLICOTHE      N/A     75  61  61 SE9G18    29.65R                  
6HR MIN TEMP:  65; 6HR MAX TEMP:  77; 6HR PCP:  0.13;                

KIRKSVILLE     CLOUDY    73  68  84 S9        29.67F                  
6HR MIN TEMP:  65; 6HR MAX TEMP:  73; 6HR PCP:  0.41;                

     
$$
MOZ066>068-077>081-088>096-101>105-181900-
...SOUTHWEST MISSOURI...
  
CITY           SKY/WX    TMP DP  RH WIND       PRES   REMARKS
SPRINGFIELD    CLOUDY    78  65  63 S23G37    29.69F                  
6HR MIN TEMP:  69; 6HR MAX TEMP:  78; 6HR PCP: TRACE;                

JOPLIN         CLOUDY    73  66  78 S15G31    29.66F THUNDER          
6HR MIN TEMP:  72; 6HR MAX TEMP:  74; 6HR PCP: TRACE;                

BRANSON        CLOUDY    79  64  61 S14G23    29.78F                  
               
$$
MOZ032>034-039>042-045>050-055>058-069>072-181900-
...CENTRAL MISSOURI...  
  
CITY           SKY/WX    TMP DP  RH WIND       PRES   REMARKS
COLUMBIA       CLOUDY    75  65  70 S9        29.72F                  
6HR MIN TEMP:  69; 6HR MAX TEMP:  77;                                

JEFFERSON CITY CLOUDY    82  65  56 S14G28    29.70F                  
6HR MIN TEMP:  71; 6HR MAX TEMP:  82; 6HR PCP: TRACE;                

ROLLA          MOSUNNY   81  64  56 S17G32    29.76F                  
6HR MIN TEMP:  69; 6HR MAX TEMP:  81;                                

SEDALIA        CLOUDY    68  65  90 E6        29.69F                  
6HR MIN TEMP:  65; 6HR MAX TEMP:  72;                                

WHITEMAN AFB   LGT RAIN  72  72 100 SE7       29.63S                  
WARRENSBURG    CLOUDY    68  64  88 E6        29.66F                  
OSAGE BEACH    CLOUDY    82  67  60 S15G21    29.72F                  
               
$$
MOZ051-052-059>065-181900-
...EAST CENTRAL MISSOURI...
  
CITY           SKY/WX    TMP DP  RH WIND       PRES   REMARKS
ST LOUIS INTL  PTSUNNY   86  61  42 S17G35    29.76F                  
6HR MIN TEMP:  70; 6HR MAX TEMP:  86;                                

SPIRIT OF STL  PTSUNNY   85  63  47 S15G28    29.74F                  
6HR MIN TEMP:  72; 6HR MAX TEMP:  85;                                

ST CHARLES     LGT RAIN  86  65  49 S22G32    29.74F                  
6HR MIN TEMP:  70; 6HR MAX TEMP:  86; 6HR PCP: TRACE;                

                   
$$
MOZ072>076-082>087-097>100-106>115-181900-
...SOUTH CENTRAL AND SOUTHEAST MISSOURI...
  
CITY           SKY/WX    TMP DP  RH WIND       PRES   REMARKS
CAPE GIRARDEAU FAIR      85  61  44 SW17G26   29.84F                  
6HR MIN TEMP:  71; 6HR MAX TEMP:  85;                                

FARMINGTON     MOSUNNY   82  59  45 S21G30    29.83F                  
6HR MIN TEMP:  65; 6HR MAX TEMP:  82;                                

POPLAR BLUFF   FAIR      84  61  45 S18G29    29.84F                  
6HR MIN TEMP:  66; 6HR MAX TEMP:  84;                                

WEST PLAINS    CLOUDY    79  64  60 S17G31    29.83F                  
6HR MIN TEMP:  68; 6HR MAX TEMP:  79;                                

                                       
$$